NAVSTAR 74 (USA 262)    
1 40730U 15033A   19264.23923080 -.00000072  00000-0  00000+0 0  9994
2 40730  55.5951   6.7702 0045027 343.8400  16.0455  2.00577553 30657
ATLAS 5 CENTAUR R/B     
1 40731U 15033B   19262.59454334 -.00000072  00000-0  00000+0 0  9993
2 40731  56.0380  12.4961 0225460 316.4242  41.8403  1.90865728 29145